CAPE
0 0 0 20 800 1377 1526 1539 1472 1118 887 586 395 375 243 496 383 309 325 419 338 210 152 105 77 33 7 0 0 0 0 0
0 0 0 33 885 1385 1405 1519 1454 1163 948 684 566 538 218 176 253 232 242 304 356 198 103 37 13 39 40 0 0 0 0 0
0 0 0 8 915 1347 1363 1482 1377 1330 1232 1083 782 517 237 233 247 269 327 351 336 213 86 21 2 0 0 0 0 0 0 0
0 0 0 0 607 1198 1444 1446 1411 1377 1392 763 329 167 171 253 328 336 356 344 304 225 12 0 0 0 0 0 0 0 0 0
0 0 0 0 62 1020 1463 1472 1444 1337 1153 827 600 606 461 288 267 267 108 0 0 0 0 0 0 0 0 0 0 0 0 0
0 0 0 0 0 877 1388 1566 1568 1301 929 848 536 484 140 143 80 82 0 0 0 0 0 0 0 0 0 0 0 0 0 0
0 0 0 0 0 226 1337 1550 1583 1014 1007 657 595 281 0 16 6 0 0 0 0 0 0 0 0 0 0 0 0 0 0 0
0 0 0 0 0 780 1114 1236 1156 913 697 437 323 4 0 0 0 0 0 0 0 0 0 0 0 0 0 0 0 0 0 0
0 0 0 0 0 691 1074 1160 1064 624 480 122 0 0 0 0 0 0 0 0 0 0 0 0 0 0 0 0 0 0 0 0
0 0 0 0 50 644 938 1297 834 551 396 0 0 0 0 0 0 0 0 0 0 0 0 0 0 0 0 0 0 0 0 0
0 0 0 14 342 368 604 625 494 305 4 0 0 0 0 0 0 0 0 0 0 0 0 0 0 0 0 0 0 0 0 0
0 0 0 283 324 66 41 74 115 0 0 0 0 0 0 0 0 0 0 0 0 0 0 0 0 0 0 0 0 0 0 0
0 0 4 369 178 4 0 0 0 0 0 0 0 0 0 0 0 0 0 0 0 0 0 0 0 0 0 0 0 0 0 0
0 0 124 251 28 0 0 0 0 0 0 0 0 0 0 0 0 0 0 0 0 0 0 0 0 0 0 0 0 0 0 0
0 5 120 93 4 0 0 0 0 0 0 0 0 0 0 0 0 0 0 0 0 0 0 0 0 0 0 0 0 0 0 0
0 0 72 42 0 0 0 0 0 0 0 0 0 0 0 0 0 0 0 0 0 0 0 0 0 0 0 0 0 0 0 0
0 0 0 14 5 0 0 0 0 0 0 0 0 0 0 0 0 0 0 0 0 0 0 0 0 0 0 0 0 0 0 0
0 0 6 0 0 0 0 0 0 0 0 0 0 0 0 0 0 0 0 0 0 0 0 0 0 0 0 0 0 0 0 0
0 0 5 1 0 0 0 0 0 0 0 0 0 0 0 0 0 0 0 0 0 0 0 0 0 0 0 0 0 0 0 0
CIN
-0 -0 -0 -104 -361 -375 -392 -365 -326 -316 -335 -384 -415 -386 -400 -279 -291 -264 -216 -143 -157 -165 -171 -210 -227 -261 -195 -0 -0 -0 -0 -0
-0 -0 -0 -110 -418 -396 -378 -373 -346 -315 -314 -340 -318 -307 -382 -372 -313 -279 -239 -180 -141 -172 -194 -274 -284 -190 -187 -0 -0 -0 -0 -0
-0 -0 -0 -94 -451 -415 -393 -383 -373 -336 -312 -286 -267 -285 -337 -316 -287 -238 -171 -145 -133 -172 -200 -233 -204 -0 -0 -0 -0 -0 -0 -0
-0 -0 -0 -0 -482 -431 -418 -434 -435 -372 -307 -348 -401 -381 -333 -279 -260 -222 -184 -153 -143 -166 -145 -0 -0 -0 -0 -0 -0 -0 -0 -0
-0 -0 -0 -0 -253 -463 -427 -446 -427 -374 -356 -354 -359 -311 -296 -341 -302 -233 -229 -0 -0 -0 -0 -0 -0 -0 -0 -0 -0 -0 -0 -0
-0 -0 -0 -0 -0 -448 -422 -429 -392 -368 -416 -355 -379 -312 -405 -398 -409 -328 -0 -0 -0 -0 -0 -0 -0 -0 -0 -0 -0 -0 -0 -0
-0 -0 -0 -0 -0 -482 -373 -380 -342 -420 -368 -406 -362 -401 -0 -482 -147 -0 -0 -0 -0 -0 -0 -0 -0 -0 -0 -0 -0 -0 -0 -0
-0 -0 -0 -0 -0 -497 -412 -371 -361 -419 -438 -446 -417 -294 -0 -0 -0 -0 -0 -0 -0 -0 -0 -0 -0 -0 -0 -0 -0 -0 -0 -0
-0 -0 -0 -0 -0 -517 -409 -376 -336 -424 -454 -580 -0 -0 -0 -0 -0 -0 -0 -0 -0 -0 -0 -0 -0 -0 -0 -0 -0 -0 -0 -0
-0 -0 -0 -0 -328 -527 -466 -327 -410 -460 -481 -0 -0 -0 -0 -0 -0 -0 -0 -0 -0 -0 -0 -0 -0 -0 -0 -0 -0 -0 -0 -0
-0 -0 -0 -355 -618 -568 -483 -493 -535 -564 -411 -0 -0 -0 -0 -0 -0 -0 -0 -0 -0 -0 -0 -0 -0 -0 -0 -0 -0 -0 -0 -0
-0 -0 -0 -583 -606 -708 -731 -728 -691 -0 -0 -0 -0 -0 -0 -0 -0 -0 -0 -0 -0 -0 -0 -0 -0 -0 -0 -0 -0 -0 -0 -0
-0 -0 -600 -534 -627 -223 -0 -0 -0 -0 -0 -0 -0 -0 -0 -0 -0 -0 -0 -0 -0 -0 -0 -0 -0 -0 -0 -0 -0 -0 -0 -0
-0 -0 -529 -572 -639 -0 -0 -0 -0 -0 -0 -0 -0 -0 -0 -0 -0 -0 -0 -0 -0 -0 -0 -0 -0 -0 -0 -0 -0 -0 -0 -0
-0 -329 -499 -584 -358 -0 -0 -0 -0 -0 -0 -0 -0 -0 -0 -0 -0 -0 -0 -0 -0 -0 -0 -0 -0 -0 -0 -0 -0 -0 -0 -0
-0 -0 -508 -613 -0 -0 -0 -0 -0 -0 -0 -0 -0 -0 -0 -0 -0 -0 -0 -0 -0 -0 -0 -0 -0 -0 -0 -0 -0 -0 -0 -0
-0 -0 -0 -564 -630 -0 -0 -0 -0 -0 -0 -0 -0 -0 -0 -0 -0 -0 -0 -0 -0 -0 -0 -0 -0 -0 -0 -0 -0 -0 -0 -0
-0 -0 -386 -0 -0 -0 -0 -0 -0 -0 -0 -0 -0 -0 -0 -0 -0 -0 -0 -0 -0 -0 -0 -0 -0 -0 -0 -0 -0 -0 -0 -0
-0 -0 -342 -284 -123 -0 -0 -0 -0 -0 -0 -0 -0 -0 -0 -0 -0 -0 -0 -0 -0 -0 -0 -0 -0 -0 -0 -0 -0 -0 -0 -0
Wind_Speed
13 11 8 14 17 19 19 16 17 16 10 8 4 8 6 8 7 7 8 7 8 6 4 5 5 5 4 4 4 3 2 2
9 9 9 12 15 17 19 18 16 13 11 11 9 11 7 5 6 7 7 7 8 8 4 5 4 5 5 5 2 3 1 2
10 8 7 17 19 19 19 19 19 16 12 11 6 8 5 6 6 7 9 10 10 9 8 6 6 4 4 4 3 3 2 2
8 7 11 7 18 20 21 22 22 20 16 9 5 5 4 4 7 5 4 7 8 8 7 6 5 5 5 3 4 5 3 1
7 9 9 10 16 18 20 21 21 19 18 16 19 14 12 6 6 5 4 6 7 7 8 7 7 5 6 4 4 3 3 3
9 11 14 14 12 16 18 19 19 18 18 18 15 13 6 8 7 9 8 6 8 9 9 8 7 5 5 6 5 4 2 3
9 8 11 14 7 9 14 16 17 17 18 17 19 16 12 11 10 8 7 7 6 7 8 7 7 7 6 5 5 4 3 3
8 6 8 9 9 12 12 16 17 18 18 16 15 14 15 16 14 11 12 8 5 7 9 7 4 5 5 5 6 4 3 3
9 10 9 14 16 16 16 18 16 15 15 12 10 11 8 9 13 12 12 10 8 8 9 10 8 7 6 5 4 4 3 4
12 11 10 10 13 16 19 19 16 15 14 12 11 11 11 11 10 11 9 10 9 11 10 10 7 7 6 6 4 4 4 4
11 11 10 12 14 13 14 16 18 16 14 13 12 12 12 11 12 13 12 10 10 11 10 9 7 6 7 6 5 4 5 2
12 10 9 11 12 15 16 16 17 16 15 13 13 11 12 13 13 12 12 12 10 10 9 9 8 8 7 6 6 5 4 2
8 8 9 12 14 14 15 14 15 14 13 12 13 13 14 14 14 14 14 14 11 12 10 9 9 7 6 6 6 5 4 2
6 2 9 12 11 12 13 13 13 13 13 14 13 14 14 14 13 13 12 12 11 9 9 9 7 6 6 5 5 5 4 1
6 5 7 8 10 11 12 14 14 15 15 15 15 14 14 13 14 12 11 11 11 9 8 8 7 6 6 6 5 4 2 1
8 9 8 7 10 10 9 9 11 13 15 16 15 14 14 15 14 13 12 11 10 9 9 7 6 6 5 6 4 4 3 1
7 8 10 12 14 14 14 14 15 15 15 14 14 15 14 13 13 12 11 11 9 8 7 7 7 4 10 10 6 3 3 1
17 10 12 15 16 15 17 19 16 17 16 15 15 15 14 14 13 12 11 10 8 7 7 7 6 5 9 9 7 3 1 1
19 18 13 15 16 16 12 15 16 17 17 16 15 15 14 12 12 11 9 8 8 8 6 5 6 3 8 8 7 3 2 1
Wind_Direction
263 253 211 186 178 177 175 176 179 176 168 161 151 174 176 168 170 180 174 182 179 173 178 174 169 160 163 169 167 181 172 212
264 249 188 177 170 168 176 170 174 166 170 171 177 188 181 170 171 175 181 179 181 170 168 163 167 168 178 175 140 151 73 65
250 221 186 173 172 177 174 178 171 177 177 180 178 176 190 173 160 177 183 182 181 170 161 172 160 130 139 134 130 111 96 28
235 188 187 207 177 180 182 180 178 179 172 150 122 108 106 152 177 172 168 164 162 163 142 140 133 123 134 123 118 124 143 26
214 201 187 200 204 185 183 179 178 178 168 165 170 176 176 185 165 152 129 126 120 119 117 124 127 125 127 127 124 124 122 154
222 201 200 206 196 188 186 182 179 175 174 173 170 176 165 143 136 145 132 118 128 130 128 126 119 114 118 122 110 108 94 113
261 217 211 212 186 177 183 179 178 170 175 173 177 166 152 150 153 148 149 137 132 128 121 120 119 125 113 106 104 104 126 110
270 273 216 218 190 175 170 174 176 174 172 169 170 166 159 159 158 155 150 147 148 141 130 111 106 98 97 106 108 96 84 103
244 256 225 213 201 180 172 173 170 170 165 155 150 152 165 164 164 159 159 159 146 138 129 123 129 117 112 108 102 116 122 107
245 248 240 202 191 185 172 173 168 164 157 149 155 159 162 162 152 155 150 137 135 133 125 123 124 125 116 118 108 106 104 81
256 254 207 187 176 170 165 166 171 164 152 159 163 160 155 151 150 145 132 125 128 128 126 122 116 114 111 113 108 117 100 97
245 236 212 183 169 167 167 166 164 163 166 163 158 152 149 148 139 127 130 123 120 125 121 120 119 124 115 115 125 116 118 130
272 208 167 172 174 167 170 164 164 167 160 150 151 144 144 140 135 135 136 135 141 131 131 122 123 116 123 125 125 130 133 121
317 235 194 173 179 173 167 163 160 156 151 147 148 150 147 142 136 132 128 125 114 112 117 119 119 123 127 125 127 126 118 166
241 223 224 186 178 178 171 166 162 158 152 151 149 149 141 134 128 124 119 117 116 115 115 123 130 132 124 119 120 126 146 152
217 219 208 192 168 167 165 160 159 155 152 152 149 138 132 131 129 124 120 120 118 120 123 122 129 127 132 129 143 167 132 116
242 228 192 190 185 180 170 165 164 160 155 148 140 134 131 128 122 120 119 114 116 119 123 133 133 130 142 132 161 161 117 216
257 210 197 197 192 179 180 174 161 158 149 145 144 139 132 131 128 126 128 131 127 130 134 135 138 145 143 142 148 136 172 230
254 250 214 205 191 186 162 161 161 155 147 141 141 139 133 131 130 131 125 131 130 131 137 143 144 166 150 152 119 145 163 264